Beaufort MCAS, SC

7:21 AM EDT on April 27, 2017 (GMT -0400)
Beaufort Marine Corps Air Station

Weather History for KNBC - April, 2012

Change the Weather History Date:

Friday, April 20, 2012

  Actual Average Record
Temperature  
Mean Temperature 68 °F -  
Max Temperature 77 °F 77 °F 92 °F (1968)
Min Temperature 62 °F 55 °F 33 °F (1983)
Cooling Degree Days 4    
Growing Degree Days 18 (Base 50)    
Moisture  
Dew Point 62 °F    
Average Humidity 79    
Maximum Humidity 96    
Minimum Humidity 62    
Precipitation  
Precipitation 0.00 in - - ()
Sea Level Pressure  
Sea Level Pressure 29.93 in    
Wind  
Wind Speed 6 mph (East)    
Max Wind Speed 9 mph    
Max Gust Speed -    
Visibility 8 miles    
Events      
Averages and records for this station are not official NWS values.
T = Trace of Precipitation, MM = Missing Value Source: NWS Daily Summary

Daily Weather History Graph

Daily Weather History Graph

Search for Another Location

Airport or City:

Trip Planner

Search our weather history database for the weather conditions in past years. The results will help you decide how hot, cold, wet, or windy it might be!

Date:

Astronomy

Apr. 20, 2012 Rise Set
Actual Time 6:47 AM EDT 7:56 PM EDT
Civil Twilight 6:21 AM EDT 8:22 PM EDT
Nautical Twilight 5:51 AM EDT 8:52 PM EDT
Astronomical Twilight 5:20 AM EDT 9:23 PM EDT
Moon 6:09 AM EDT (4/20) 7:38 PM EDT (4/20)
Length of Visible Light 14h 00m
Length of Day
13h 09m
Waning Crescent, 0% of the Moon is Illuminated
Apr 20
Waning Crescent
Apr 21
New
Apr 29
First Quarter
May 5
Full
May 12
Last Quarter

Hourly Weather History & Observations

Time (EDT) Temp. Dew Point Humidity Pressure Visibility Wind Dir Wind Speed Gust Speed Precip Events Conditions
12:56 AM 64.9 °F 61.0 °F 87% 29.99 in 8.0 mi NE 6.9 mph - N/A   Overcast
1:56 AM 64.0 °F 60.1 °F 87% 29.97 in 9.0 mi NE 6.9 mph - N/A   Overcast
2:56 AM 64.0 °F 60.1 °F 87% 29.95 in 9.0 mi ENE 6.9 mph - N/A   Overcast
3:56 AM 64.0 °F 60.1 °F 87% 29.95 in 6.0 mi ENE 4.6 mph - N/A   Overcast
4:56 AM 64.0 °F 61.0 °F 90% 29.94 in 7.0 mi NE 9.2 mph - N/A   Overcast
5:07 AM 64.4 °F 60.8 °F 88% 29.93 in 7.0 mi ENE 4.6 mph - N/A   Overcast
5:56 AM 63.0 °F 60.1 °F 90% 29.93 in 6.0 mi ENE 3.5 mph - N/A   Overcast
6:41 AM 62.6 °F 59.0 °F 88% 29.93 in 3.0 mi NE 5.8 mph - N/A   Mostly Cloudy
6:56 AM 63.0 °F 60.1 °F 90% 29.94 in 3.0 mi NNE 4.6 mph - N/A   Mostly Cloudy
7:56 AM 64.0 °F 61.0 °F 90% 29.96 in 3.0 mi NE 5.8 mph - N/A   Overcast
8:56 AM 64.0 °F 61.0 °F 90% 29.96 in 4.0 mi ENE 8.1 mph - N/A   Overcast
9:46 AM 64.4 °F 60.8 °F 88% 29.97 in 4.0 mi ENE 4.6 mph - N/A   Overcast
9:56 AM 66.0 °F 61.0 °F 84% 29.97 in 4.0 mi ENE 5.8 mph - N/A   Haze
10:28 AM 68.0 °F 60.8 °F 78% 29.98 in 5.0 mi East 5.8 mph - N/A   Haze
10:56 AM 70.0 °F 62.1 °F 76% 29.98 in 5.0 mi East 8.1 mph - N/A   Haze
11:03 AM 69.8 °F 62.6 °F 78% 29.97 in 10.0 mi East 8.1 mph - N/A   Overcast
11:10 AM 71.6 °F 62.6 °F 73% 29.97 in 10.0 mi Variable 5.8 mph - N/A   Mostly Cloudy
11:56 AM 71.1 °F 62.1 °F 73% 29.98 in 10.0 mi East 5.8 mph - N/A   Mostly Cloudy
12:03 PM 71.6 °F 62.6 °F 73% 29.97 in 10.0 mi East 5.8 mph - N/A   Mostly Cloudy
12:56 PM 73.9 °F 61.0 °F 64% 29.97 in 10.0 mi East 4.6 mph - N/A   Mostly Cloudy
1:56 PM 73.9 °F 61.0 °F 64% 29.95 in 10.0 mi East 4.6 mph - N/A   Mostly Cloudy
2:56 PM 75.0 °F 63.0 °F 66% 29.94 in 10.0 mi SSE 3.5 mph - N/A   Mostly Cloudy
3:56 PM 75.9 °F 64.0 °F 67% 29.91 in 10.0 mi Calm Calm - N/A   Mostly Cloudy
4:56 PM 75.9 °F 62.1 °F 62% 29.88 in 10.0 mi SE 4.6 mph - N/A   Mostly Cloudy
5:03 PM 75.2 °F 62.6 °F 65% 29.88 in 10.0 mi ESE 8.1 mph - N/A   Mostly Cloudy
5:11 PM 75.2 °F 62.6 °F 65% 29.88 in 10.0 mi ESE 6.9 mph - N/A   Mostly Cloudy
5:51 PM 73.4 °F 64.4 °F 73% 29.86 in 10.0 mi ESE 8.1 mph - N/A   Mostly Cloudy
5:56 PM 73.9 °F 64.0 °F 71% 29.87 in 10.0 mi East 6.9 mph - N/A   Mostly Cloudy
6:56 PM 73.9 °F 63.0 °F 68% 29.86 in 10.0 mi SSE 3.5 mph - N/A   Clear
7:56 PM 72.0 °F 64.0 °F 76% 29.86 in 10.0 mi SE 5.8 mph - N/A   Clear
8:56 PM 69.1 °F 64.0 °F 84% 29.88 in 10.0 mi SE 4.6 mph - N/A   Mostly Cloudy
9:56 PM 68.0 °F 64.0 °F 87% 29.88 in 10.0 mi East 3.5 mph - N/A   Scattered Clouds
10:56 PM 68.0 °F 64.9 °F 90% 29.88 in 10.0 mi ESE 3.5 mph - N/A   Partly Cloudy
11:56 PM 64.0 °F 63.0 °F 96% 29.88 in 10.0 mi Calm Calm - N/A   Partly Cloudy